Weather History for KOOA - October, 2012

Change the Weather History Date:

Tuesday, October 16, 2012

  Actual Average (KOTM) Record (KOTM)
Temperature  
Mean Temperature 62 °F 52 °F  
Max Temperature 78 °F 63 °F 89 °F (1935)
Min Temperature 46 °F 41 °F 27 °F (2002)
Degree Days  
Heating Degree Days 3 13  
Month to date heating degree days 168  
Since 1 July heating degree days 289  
Cooling Degree Days 0 0  
Month to date cooling degree days 9  
Year to date cooling degree days 936  
Growing Degree Days 12 (Base 50)    
Moisture  
Dew Point 47 °F    
Average Humidity 64    
Maximum Humidity 85    
Minimum Humidity 35    
Precipitation  
Precipitation 0.00 in 0.09 in 1.40 in (1913)
Month to date precipitation 1.48  
Year to date precipitation 31.97  
Sea Level Pressure  
Sea Level Pressure 29.60 in    
Wind  
Wind Speed 10 mph (South)    
Max Wind Speed 21 mph    
Max Gust Speed 28 mph    
Visibility 10 miles    
Events      
T = Trace of Precipitation, MM = Missing Value Source: NWS Daily Summary

Daily Weather History Graph

Daily Weather History Graph

Search for Another Location

Airport or City:

Trip Planner

Search our weather history database for the weather conditions in past years. The results will help you decide how hot, cold, wet, or windy it might be!

Date:

Astronomy

Oct. 16, 2012 Rise Set
Actual Time 7:23 AM CDT 6:26 PM CDT
Civil Twilight 6:55 AM CDT 6:54 PM CDT
Nautical Twilight 6:23 AM CDT 7:26 PM CDT
Astronomical Twilight 5:51 AM CDT 7:58 PM CDT
Moon 8:48 AM CDT (10/16) 7:10 PM CDT (10/16)
Length of Visible Light 11h 59m
Length of Day
11h 03m
New Moon, 2% of the Moon is Illuminated
Oct 16
New Moon
Oct 21
First Quarter
Oct 29
Full
Nov 6
Last Quarter
Nov 13
New

Hourly Weather History & Observations

Time (CDT) Temp. Dew Point Humidity Pressure Visibility Wind Dir Wind Speed Gust Speed Precip Events Conditions
12:15 AM 49.3 °F 41.4 °F 74% 29.87 in 10.0 mi SE 6.9 mph - N/A   Clear
12:35 AM 48.2 °F 41.5 °F 78% 29.86 in 10.0 mi SE 6.9 mph - N/A   Clear
12:55 AM 48.9 °F 41.5 °F 76% 29.86 in 10.0 mi SE 6.9 mph - N/A   Clear
1:15 AM 48.4 °F 41.7 °F 78% 29.86 in 10.0 mi SE 6.9 mph - N/A   Clear
1:35 AM 48.0 °F 41.5 °F 78% 29.86 in 10.0 mi SE 8.1 mph - N/A   Clear
1:55 AM 46.9 °F 41.4 °F 81% 29.85 in 10.0 mi SE 6.9 mph - N/A   Clear
2:15 AM 47.3 °F 41.5 °F 80% 29.84 in 10.0 mi SE 6.9 mph - N/A   Clear
2:35 AM 46.8 °F 41.9 °F 83% 29.83 in 10.0 mi SE 8.1 mph - N/A   Clear
2:55 AM 47.3 °F 42.1 °F 82% 29.82 in 10.0 mi SE 6.9 mph - N/A   Clear
3:15 AM 46.8 °F 41.9 °F 83% 29.81 in 10.0 mi SE 6.9 mph - N/A   Clear
3:35 AM 47.5 °F 42.1 °F 82% 29.78 in 10.0 mi SE 9.2 mph - N/A   Clear
3:55 AM 47.5 °F 42.3 °F 82% 29.77 in 10.0 mi SE 9.2 mph - N/A   Clear
4:15 AM 47.5 °F 42.3 °F 82% 29.76 in 10.0 mi SE 10.4 mph - N/A   Clear
4:35 AM 46.8 °F 42.1 °F 84% 29.75 in 10.0 mi SE 6.9 mph - N/A   Clear
4:55 AM 46.6 °F 42.3 °F 85% 29.74 in 10.0 mi SE 6.9 mph - N/A   Clear
5:15 AM 47.1 °F 42.4 °F 84% 29.73 in 10.0 mi SSE 8.1 mph - N/A   Clear
5:35 AM 47.8 °F 43.0 °F 83% 29.72 in 10.0 mi SE 8.1 mph - N/A   Clear
5:55 AM 48.7 °F 43.5 °F 82% 29.71 in 10.0 mi SE 10.4 mph - N/A   Clear
6:15 AM 48.7 °F 43.5 °F 82% 29.70 in 10.0 mi SE 10.4 mph - N/A   Clear
6:35 AM 48.2 °F 43.3 °F 83% 29.70 in 10.0 mi SE 9.2 mph - N/A   Clear
7:15 AM 49.1 °F 44.1 °F 83% 29.69 in 10.0 mi SSE 8.1 mph - N/A   Clear
7:35 AM 49.6 °F 44.2 °F 82% 29.68 in 10.0 mi SSE 5.8 mph - N/A   Clear
7:55 AM 50.9 °F 45.1 °F 81% 29.67 in 10.0 mi SSE 9.2 mph - N/A   Clear
8:15 AM 51.1 °F 45.5 °F 81% 29.66 in 10.0 mi SSE 9.2 mph - N/A   Clear
8:35 AM 52.7 °F 46.4 °F 79% 29.66 in 10.0 mi SSE 9.2 mph - N/A   Clear
8:55 AM 54.1 °F 47.1 °F 77% 29.65 in 10.0 mi SSE 12.7 mph - N/A   Clear
9:15 AM 56.3 °F 47.7 °F 73% 29.64 in 10.0 mi South 12.7 mph - N/A   Clear
9:35 AM 59.7 °F 48.9 °F 67% 29.63 in 10.0 mi South 13.8 mph - N/A   Clear
9:55 AM 59.5 °F 48.9 °F 68% 29.63 in 10.0 mi South 11.5 mph - N/A   Clear
10:15 AM 62.1 °F 49.6 °F 64% 29.60 in 10.0 mi South 15.0 mph 19.6 mph N/A   Clear
10:35 AM 64.6 °F 49.8 °F 59% 29.61 in 10.0 mi South 11.5 mph 18.4 mph N/A   Clear
10:55 AM 65.8 °F 50.4 °F 57% 29.60 in 10.0 mi SSW 13.8 mph - N/A   Clear
11:15 AM 68.9 °F 50.2 °F 51% 29.59 in 10.0 mi SSW 13.8 mph - N/A   Clear
11:35 AM 70.9 °F 50.2 °F 48% 29.58 in 10.0 mi SW 11.5 mph - N/A   Clear
11:55 AM 71.8 °F 49.6 °F 45% 29.57 in 10.0 mi SW 16.1 mph - N/A   Clear
12:15 PM 73.4 °F 49.8 °F 43% 29.57 in 10.0 mi SSW 16.1 mph 23.0 mph N/A   Clear
12:35 PM 74.3 °F 50.0 °F 42% 29.56 in 10.0 mi SW 16.1 mph 19.6 mph N/A   Clear
12:55 PM 76.1 °F 50.2 °F 40% 29.54 in 10.0 mi SSW 17.3 mph 20.7 mph N/A   Clear
1:15 PM 75.7 °F 49.6 °F 40% 29.53 in 10.0 mi SSW 18.4 mph 23.0 mph N/A   Clear
1:35 PM 74.8 °F 50.0 °F 42% 29.51 in 10.0 mi SSW 15.0 mph 23.0 mph N/A   Clear
1:55 PM 77.4 °F 50.0 °F 38% 29.50 in 10.0 mi SSW 18.4 mph 21.9 mph N/A   Clear
2:15 PM 77.0 °F 50.2 °F 39% 29.50 in 10.0 mi SW 19.6 mph - N/A   Clear
2:35 PM 75.7 °F 49.8 °F 40% 29.50 in 10.0 mi SSW 16.1 mph 23.0 mph N/A   Clear
3:15 PM 75.7 °F 50.2 °F 41% 29.47 in 10.0 mi SW 12.7 mph 19.6 mph N/A   Clear
3:35 PM 78.8 °F 49.6 °F 36% 29.47 in 10.0 mi SW 19.6 mph 25.3 mph N/A   Clear
3:55 PM 78.4 °F 49.5 °F 36% 29.47 in 10.0 mi SW 20.7 mph 27.6 mph N/A   Clear
4:15 PM 78.6 °F 49.3 °F 36% 29.46 in 10.0 mi SW 19.6 mph 27.6 mph N/A   Clear
4:35 PM 78.3 °F 48.9 °F 36% 29.45 in 10.0 mi WSW 20.7 mph 25.3 mph N/A   Clear
4:55 PM 77.9 °F 48.4 °F 35% 29.45 in 10.0 mi SW 20.7 mph 26.5 mph N/A   Clear
5:15 PM 77.4 °F 49.3 °F 37% 29.45 in 10.0 mi SW 16.1 mph 20.7 mph N/A   Clear
5:35 PM 76.6 °F 48.9 °F 38% 29.45 in 10.0 mi WSW 11.5 mph 19.6 mph N/A   Clear
5:55 PM 75.0 °F 49.3 °F 40% 29.45 in 10.0 mi WSW 9.2 mph - N/A   Clear
6:15 PM 72.0 °F 50.0 °F 46% 29.46 in 10.0 mi WSW 9.2 mph - N/A   Clear
6:35 PM 69.1 °F 50.4 °F 51% 29.46 in 10.0 mi WSW 8.1 mph - N/A   Clear
6:55 PM 65.7 °F 50.0 °F 57% 29.46 in 10.0 mi WSW 5.8 mph - N/A   Clear
7:15 PM 65.7 °F 50.0 °F 57% 29.47 in 10.0 mi WSW 6.9 mph - N/A   Clear
7:35 PM 63.5 °F 50.0 °F 61% 29.47 in 10.0 mi WSW 6.9 mph - N/A   Clear
7:55 PM 61.0 °F 49.6 °F 66% 29.48 in 10.0 mi SSW 6.9 mph - N/A   Clear
8:15 PM 60.1 °F 50.0 °F 69% 29.48 in 10.0 mi SSW 3.5 mph - N/A   Clear
8:35 PM 61.0 °F 50.0 °F 67% 29.48 in 10.0 mi SSW 6.9 mph - N/A   Clear
8:55 PM 60.8 °F 50.0 °F 68% 29.48 in 10.0 mi SSW 8.1 mph - N/A   Clear
9:15 PM 62.1 °F 50.0 °F 65% 29.48 in 10.0 mi SW 8.1 mph - N/A   Clear
9:35 PM 59.9 °F 49.6 °F 69% 29.48 in 10.0 mi SSW 6.9 mph - N/A   Clear
9:55 PM 58.8 °F 49.5 °F 71% 29.48 in 10.0 mi SSW 6.9 mph - N/A   Clear
10:15 PM 58.6 °F 49.5 °F 72% 29.48 in 10.0 mi SSW 8.1 mph - N/A   Clear
10:35 PM 58.1 °F 49.5 °F 73% 29.49 in 10.0 mi SSW 8.1 mph - N/A   Clear
10:55 PM 55.9 °F 48.4 °F 76% 29.49 in 10.0 mi SSW 8.1 mph - N/A   Clear
11:15 PM 56.5 °F 48.9 °F 76% 29.48 in 10.0 mi South 5.8 mph - N/A   Clear
11:35 PM 55.4 °F 49.8 °F 81% 29.48 in 10.0 mi South 8.1 mph - N/A   Clear
11:55 PM 58.1 °F 51.4 °F 78% 29.48 in 10.0 mi South 6.9 mph - N/A   Clear